User: anonymous   Login
Location: Pine Mountain Observatory
(43.7910°N, 120.9377°W)
Time: 16:49:00
(UTC-07:00)
Language:

Meteor 2-19 Rocket - Orbit

View from above orbital plane
View from above orbital plane
View from above satellite
View from above satellite

Ground track
Ground track

The orbit data is extracted from the following two-line orbital elements,

1 20671U 90057B   16126.66612506  .00000036  00000-0  19090-4 0  9997
2 20671  82.5463 336.0456 0015791  26.4019  34.4846 13.84600639306679
Epoch (UTC): 05 May 2016 15:59:13
Eccentricity: 0.0015791
inclination: 82.5463°
perigee height: 936 km
apogee height: 959 km
right ascension of ascending node: 336.0456°
argument of perigee: 26.4019°
revolutions per day: 13.84600639
mean anomaly at epoch: 34.4846°
orbit number at epoch: 30667

The dashed part of the orbit path shows where the satellite is in the earth's shadow,  

DLR